Time,TemperatureF,DewpointF,PressureIn,WindDirection,WindDirectionDegrees,WindSpeedMPH,WindSpeedGustMPH,Humidity,HourlyPrecipIn,Conditions,Clouds,dailyrainin,SoftwareType,DateUTC
2013-02-24 00:01:00,39.0,34.0,29.80,NNE,31,0.0,2.0,81,0.00,,,0.02,,2013-02-24 05:01:00,
2013-02-24 00:11:00,39.0,34.0,29.80,NNE,31,0.0,2.0,81,0.00,,,0.02,,2013-02-24 05:11:00,
2013-02-24 00:22:00,39.0,34.0,29.80,NNE,31,0.0,2.0,81,0.00,,,0.02,,2013-02-24 05:22:00,
2013-02-24 00:32:00,39.0,34.0,29.80,NNE,31,1.0,2.0,81,0.00,,,0.02,,2013-02-24 05:32:00,
2013-02-24 00:42:00,39.0,34.0,29.80,NNE,31,1.0,2.0,81,0.00,,,0.02,,2013-02-24 05:42:00,
2013-02-24 00:52:00,39.0,34.0,29.80,NNE,31,1.0,3.0,81,0.00,,,0.02,,2013-02-24 05:52:00,
2013-02-24 01:01:00,38.0,33.0,29.81,NNE,31,2.0,4.0,82,0.00,,,0.02,,2013-02-24 06:01:00,
2013-02-24 01:11:00,38.0,33.0,29.81,NNE,31,2.0,4.0,82,0.00,,,0.02,,2013-02-24 06:11:00,
2013-02-24 01:21:00,39.0,34.0,29.82,NNE,31,0.0,2.0,82,0.00,,,0.02,,2013-02-24 06:21:00,
2013-02-24 01:32:00,39.0,34.0,29.82,NNE,31,0.0,3.0,82,0.00,,,0.02,,2013-02-24 06:32:00,
2013-02-24 01:42:00,39.0,34.0,29.82,NNE,31,0.0,3.0,82,0.00,,,0.02,,2013-02-24 06:42:00,
2013-02-24 01:52:00,38.0,33.0,29.83,NNE,31,0.0,2.0,82,0.00,,,0.02,,2013-02-24 06:52:00,
2013-02-24 02:01:00,38.0,33.0,29.83,NNE,31,1.0,2.0,82,0.00,,,0.02,,2013-02-24 07:01:00,
2013-02-24 02:12:00,38.0,33.0,29.83,NNE,31,1.0,2.0,82,0.00,,,0.02,,2013-02-24 07:12:00,
2013-02-24 02:21:00,38.0,33.0,29.83,NNE,31,0.0,2.0,82,0.00,,,0.02,,2013-02-24 07:21:00,
2013-02-24 02:32:00,38.0,33.0,29.83,NNE,31,0.0,2.0,82,0.00,,,0.02,,2013-02-24 07:32:00,
2013-02-24 02:42:00,38.0,33.0,29.83,NNE,31,0.0,2.0,82,0.00,,,0.02,,2013-02-24 07:42:00,
2013-02-24 02:52:00,38.0,33.0,29.82,NNE,31,0.0,2.0,82,0.00,,,0.02,,2013-02-24 07:52:00,
2013-02-24 03:01:00,38.0,33.0,29.80,NNE,31,0.0,1.0,82,0.00,,,0.02,,2013-02-24 08:01:00,
2013-02-24 03:11:00,38.0,33.0,29.80,NNE,31,0.0,1.0,82,0.00,,,0.02,,2013-02-24 08:11:00,
2013-02-24 03:22:00,36.0,31.0,29.80,NNE,31,0.0,1.0,81,0.00,,,0.02,,2013-02-24 08:22:00,
2013-02-24 03:32:00,37.0,32.0,29.79,NNE,31,0.0,2.0,82,0.00,,,0.02,,2013-02-24 08:32:00,
2013-02-24 03:42:00,37.0,32.0,29.79,NNE,31,0.0,2.0,82,0.00,,,0.02,,2013-02-24 08:42:00,
2013-02-24 03:54:00,37.0,32.0,29.78,NNE,31,0.0,1.0,82,0.00,,,0.02,,2013-02-24 08:54:00,
2013-02-24 04:01:00,36.0,31.0,29.79,NNE,31,0.0,2.0,82,0.00,,,0.02,,2013-02-24 09:01:00,
2013-02-24 04:11:00,36.0,31.0,29.79,NNE,31,0.0,2.0,82,0.00,,,0.02,,2013-02-24 09:11:00,
2013-02-24 04:21:00,35.0,30.0,29.80,NNE,31,1.0,1.0,82,0.00,,,0.02,,2013-02-24 09:21:00,
2013-02-24 04:32:00,35.0,30.0,29.80,NNE,31,0.0,1.0,82,0.00,,,0.02,,2013-02-24 09:32:00,
2013-02-24 04:42:00,35.0,30.0,29.80,NNE,31,0.0,1.0,82,0.00,,,0.02,,2013-02-24 09:42:00,
2013-02-24 04:52:00,36.0,31.0,29.81,NNE,31,0.0,0.0,82,0.00,,,0.02,,2013-02-24 09:52:00,
2013-02-24 05:01:00,36.0,31.0,29.82,NNE,31,0.0,0.0,82,0.00,,,0.02,,2013-02-24 10:01:00,
2013-02-24 05:11:00,36.0,31.0,29.82,NNE,31,0.0,0.0,82,0.00,,,0.02,,2013-02-24 10:11:00,
2013-02-24 05:21:00,36.0,31.0,29.82,NNE,31,0.0,0.0,82,0.00,,,0.02,,2013-02-24 10:21:00,
2013-02-24 05:32:00,36.0,31.0,29.82,NNE,31,0.0,0.0,83,0.00,,,0.02,,2013-02-24 10:32:00,
2013-02-24 05:42:00,36.0,31.0,29.82,NNE,31,0.0,0.0,83,0.00,,,0.02,,2013-02-24 10:42:00,
2013-02-24 05:52:00,36.0,31.0,29.82,NNE,31,1.0,2.0,83,0.00,,,0.02,,2013-02-24 10:52:00,
2013-02-24 06:01:00,36.0,31.0,29.82,NNE,31,0.0,1.0,83,0.00,,,0.02,,2013-02-24 11:01:00,
2013-02-24 06:11:00,36.0,31.0,29.82,NNE,31,0.0,1.0,83,0.00,,,0.02,,2013-02-24 11:11:00,
2013-02-24 06:22:00,36.0,31.0,29.82,NNE,31,0.0,1.0,82,0.00,,,0.02,,2013-02-24 11:22:00,
2013-02-24 06:32:00,35.0,30.0,29.83,NNE,31,0.0,0.0,83,0.00,,,0.02,,2013-02-24 11:32:00,
2013-02-24 06:42:00,35.0,30.0,29.83,NNE,31,0.0,0.0,83,0.00,,,0.02,,2013-02-24 11:42:00,
2013-02-24 06:53:00,35.0,30.0,29.83,NNE,31,0.0,1.0,82,0.00,,,0.02,,2013-02-24 11:53:00,
2013-02-24 07:02:00,35.0,30.0,29.83,NNE,31,0.0,1.0,83,0.00,,,0.02,,2013-02-24 12:02:00,
2013-02-24 07:11:00,35.0,30.0,29.83,NNE,31,0.0,1.0,83,0.00,,,0.02,,2013-02-24 12:11:00,
2013-02-24 07:22:00,33.0,28.0,29.83,NNE,31,0.0,2.0,82,0.00,,,0.02,,2013-02-24 12:22:00,
2013-02-24 07:32:00,33.0,28.0,29.83,NNE,31,0.0,1.0,82,0.00,,,0.02,,2013-02-24 12:32:00,
2013-02-24 07:46:00,33.0,28.0,29.83,NNE,31,0.0,1.0,82,0.00,,,0.02,,2013-02-24 12:46:00,
2013-02-24 07:57:00,34.0,29.0,29.83,NNE,31,0.0,2.0,83,0.00,,,0.02,,2013-02-24 12:57:00,
2013-02-24 08:14:00,35.0,30.0,29.84,NNE,31,2.0,4.0,83,0.00,,,0.02,,2013-02-24 13:14:00,
2013-02-24 08:26:00,37.0,32.0,29.84,NNW,339,3.0,7.0,83,0.00,,,0.02,,2013-02-24 13:26:00,
2013-02-24 08:34:00,39.0,33.0,29.85,NW,317,6.0,10.0,78,0.00,,,0.02,,2013-02-24 13:34:00,
2013-02-24 08:44:00,39.0,33.0,29.85,NW,317,6.0,10.0,78,0.00,,,0.02,,2013-02-24 13:44:00,
2013-02-24 09:04:00,40.0,28.0,29.86,NW,319,12.0,17.0,61,0.00,,,0.02,,2013-02-24 14:04:00,
2013-02-24 09:14:00,41.0,28.0,29.87,NNW,336,6.0,16.0,60,0.00,,,0.02,,2013-02-24 14:14:00,
2013-02-24 09:25:00,41.0,28.0,29.87,NNW,336,6.0,16.0,60,0.00,,,0.02,,2013-02-24 14:25:00,
2013-02-24 09:34:00,40.0,26.0,29.87,NW,304,12.0,23.0,57,0.00,,,0.02,,2013-02-24 14:34:00,
2013-02-24 09:44:00,40.0,26.0,29.87,NW,304,12.0,23.0,57,0.00,,,0.02,,2013-02-24 14:44:00,
2013-02-24 09:55:00,41.0,27.0,29.88,NNW,338,12.0,17.0,57,0.00,,,0.02,,2013-02-24 14:55:00,
2013-02-24 10:03:00,42.0,27.0,29.88,NW,306,9.0,14.0,56,0.00,,,0.02,,2013-02-24 15:03:00,
2013-02-24 10:13:00,41.0,26.0,29.88,West,279,11.0,17.0,55,0.00,,,0.02,,2013-02-24 15:13:00,
2013-02-24 10:32:00,42.0,27.0,29.89,NW,315,11.0,16.0,54,0.00,,,0.02,,2013-02-24 15:32:00,
2013-02-24 10:42:00,42.0,27.0,29.89,NW,315,11.0,16.0,54,0.00,,,0.02,,2013-02-24 15:42:00,
2013-02-24 10:53:00,42.0,27.0,29.89,NNW,331,12.0,17.0,54,0.00,,,0.02,,2013-02-24 15:53:00,
2013-02-24 11:01:00,42.0,27.0,29.89,NNW,331,14.0,19.0,54,0.00,,,0.02,,2013-02-24 16:01:00,
2013-02-24 11:11:00,43.0,27.0,29.89,NW,308,6.0,12.0,52,0.00,,,0.02,,2013-02-24 16:11:00,
2013-02-24 11:21:00,43.0,27.0,29.89,NW,308,6.0,12.0,52,0.00,,,0.02,,2013-02-24 16:21:00,
2013-02-24 11:32:00,42.0,26.0,29.89,NW,313,5.0,11.0,53,0.00,,,0.02,,2013-02-24 16:32:00,
2013-02-24 11:42:00,42.0,26.0,29.89,NW,313,5.0,11.0,53,0.00,,,0.02,,2013-02-24 16:42:00,
2013-02-24 11:52:00,43.0,26.0,29.89,NNW,329,6.0,15.0,50,0.00,,,0.02,,2013-02-24 16:52:00,
2013-02-24 12:01:00,44.0,27.0,29.89,NW,322,11.0,15.0,51,0.00,,,0.02,,2013-02-24 17:01:00,
2013-02-24 12:11:00,44.0,27.0,29.89,NW,322,11.0,15.0,51,0.00,,,0.02,,2013-02-24 17:11:00,
2013-02-24 12:22:00,45.0,27.0,29.88,NW,306,9.0,14.0,48,0.00,,,0.01,,2013-02-24 17:22:00,
2013-02-24 12:32:00,44.0,26.0,29.88,WNW,298,9.0,23.0,48,0.00,,,0.01,,2013-02-24 17:32:00,
2013-02-24 12:42:00,44.0,26.0,29.88,WNW,298,9.0,23.0,48,0.00,,,0.01,,2013-02-24 17:42:00,
2013-02-24 12:53:00,45.0,26.0,29.88,NW,309,9.0,14.0,47,0.00,,,0.01,,2013-02-24 17:53:00,
2013-02-24 13:02:00,44.0,26.0,29.88,NW,309,10.0,15.0,48,0.00,,,0.01,,2013-02-24 18:02:00,
2013-02-24 13:11:00,44.0,26.0,29.88,NW,309,10.0,15.0,48,0.00,,,0.01,,2013-02-24 18:11:00,
2013-02-24 13:22:00,46.0,27.0,29.88,NNW,331,8.0,12.0,48,0.00,,,0.00,,2013-02-24 18:22:00,
2013-02-24 13:32:00,45.0,27.0,29.88,NW,323,14.0,21.0,49,0.00,,,0.00,,2013-02-24 18:32:00,
2013-02-24 13:42:00,45.0,27.0,29.88,NW,323,14.0,21.0,49,0.00,,,0.00,,2013-02-24 18:42:00,
2013-02-24 13:52:00,45.0,27.0,29.88,NW,309,13.0,22.0,48,0.00,,,0.00,,2013-02-24 18:52:00,
2013-02-24 14:01:00,44.0,25.0,29.88,NW,323,12.0,20.0,47,0.00,,,0.00,,2013-02-24 19:01:00,
2013-02-24 14:12:00,44.0,25.0,29.88,NW,323,12.0,20.0,47,0.00,,,0.00,,2013-02-24 19:12:00,
2013-02-24 14:22:00,42.0,25.0,29.88,NNW,335,15.0,22.0,50,0.00,,,0.00,,2013-02-24 19:22:00,
2013-02-24 14:32:00,42.0,25.0,29.89,NNW,332,16.0,23.0,51,0.00,,,0.00,,2013-02-24 19:32:00,
2013-02-24 14:42:00,42.0,25.0,29.89,NNW,332,16.0,23.0,51,0.00,,,0.00,,2013-02-24 19:42:00,
2013-02-24 14:52:00,41.0,25.0,29.90,NNW,330,12.0,22.0,53,0.00,,,0.00,,2013-02-24 19:52:00,
2013-02-24 15:02:00,40.0,25.0,29.91,North,360,14.0,19.0,55,0.00,,,0.00,,2013-02-24 20:02:00,
2013-02-24 15:11:00,40.0,25.0,29.91,North,360,14.0,19.0,55,0.00,,,0.00,,2013-02-24 20:11:00,
2013-02-24 15:21:00,39.0,25.0,29.92,NNW,331,10.0,16.0,57,0.00,,,0.00,,2013-02-24 20:21:00,
2013-02-24 15:32:00,38.0,25.0,29.93,NNE,23,10.0,19.0,58,0.00,,,0.00,,2013-02-24 20:32:00,
2013-02-24 15:42:00,38.0,25.0,29.93,NNE,23,10.0,19.0,58,0.00,,,0.00,,2013-02-24 20:42:00,
2013-02-24 15:52:00,38.0,25.0,29.94,NNW,344,11.0,19.0,59,0.00,,,0.00,,2013-02-24 20:52:00,
2013-02-24 16:02:00,37.0,24.0,29.95,NNW,336,15.0,20.0,59,0.00,,,0.00,,2013-02-24 21:02:00,
2013-02-24 16:11:00,37.0,24.0,29.95,NNW,336,15.0,20.0,59,0.00,,,0.00,,2013-02-24 21:11:00,
2013-02-24 16:21:00,37.0,24.0,29.96,NW,310,11.0,19.0,60,0.00,,,0.00,,2013-02-24 21:21:00,
2013-02-24 16:32:00,36.0,23.0,29.96,NW,320,8.0,18.0,60,0.00,,,0.00,,2013-02-24 21:32:00,
2013-02-24 16:42:00,36.0,23.0,29.96,NW,320,8.0,18.0,60,0.00,,,0.00,,2013-02-24 21:42:00,
2013-02-24 16:52:00,36.0,23.0,29.97,NW,316,11.0,18.0,60,0.00,,,0.00,,2013-02-24 21:52:00,
2013-02-24 17:01:00,36.0,23.0,29.98,NNW,331,9.0,16.0,60,0.00,,,0.00,,2013-02-24 22:01:00,
2013-02-24 17:11:00,36.0,23.0,29.98,NNW,331,9.0,16.0,60,0.00,,,0.00,,2013-02-24 22:11:00,
2013-02-24 17:21:00,36.0,24.0,29.99,North,355,7.0,11.0,61,0.00,,,0.00,,2013-02-24 22:21:00,
2013-02-24 17:32:00,36.0,23.0,30.00,NNW,338,10.0,15.0,58,0.00,,,0.00,,2013-02-24 22:32:00,
2013-02-24 17:42:00,36.0,23.0,30.00,NNW,338,10.0,15.0,58,0.00,,,0.00,,2013-02-24 22:42:00,
2013-02-24 17:52:00,36.0,22.0,29.99,NW,323,13.0,18.0,56,0.00,,,0.00,,2013-02-24 22:52:00,
2013-02-24 18:02:00,35.0,20.0,30.00,NW,318,12.0,23.0,55,0.00,,,0.00,,2013-02-24 23:02:00,
2013-02-24 18:11:00,35.0,20.0,30.00,NW,318,12.0,23.0,55,0.00,,,0.00,,2013-02-24 23:11:00,
2013-02-24 18:21:00,35.0,21.0,30.01,NW,320,9.0,20.0,56,0.00,,,0.00,,2013-02-24 23:21:00,
2013-02-24 18:32:00,35.0,20.0,30.02,NW,319,9.0,16.0,55,0.00,,,0.00,,2013-02-24 23:32:00,
2013-02-24 18:42:00,35.0,20.0,30.02,NW,319,9.0,16.0,55,0.00,,,0.00,,2013-02-24 23:42:00,
2013-02-24 18:52:00,34.0,20.0,30.03,NNW,334,4.0,10.0,55,0.00,,,0.00,,2013-02-24 23:52:00,
2013-02-24 19:01:00,34.0,19.0,30.03,North,5,2.0,7.0,54,0.00,,,0.00,,2013-02-25 00:01:00,
2013-02-24 19:11:00,34.0,19.0,30.03,North,5,2.0,7.0,54,0.00,,,0.00,,2013-02-25 00:11:00,
2013-02-24 19:21:00,34.0,20.0,30.04,North,9,2.0,4.0,55,0.00,,,0.00,,2013-02-25 00:21:00,
2013-02-24 19:32:00,34.0,20.0,30.05,NW,322,2.0,5.0,56,0.00,,,0.00,,2013-02-25 00:32:00,
2013-02-24 19:42:00,34.0,20.0,30.05,NW,322,2.0,5.0,56,0.00,,,0.00,,2013-02-25 00:42:00,
2013-02-24 19:52:00,34.0,20.0,30.05,NW,304,5.0,7.0,57,0.00,,,0.00,,2013-02-25 00:52:00,
2013-02-24 20:01:00,33.0,20.0,30.06,NW,311,5.0,10.0,58,0.00,,,0.00,,2013-02-25 01:01:00,
2013-02-24 20:11:00,33.0,20.0,30.06,NW,311,5.0,10.0,58,0.00,,,0.00,,2013-02-25 01:11:00,
2013-02-24 20:21:00,33.0,20.0,30.07,NW,306,4.0,7.0,58,0.00,,,0.00,,2013-02-25 01:21:00,
2013-02-24 20:32:00,34.0,20.0,30.07,NW,306,5.0,9.0,57,0.00,,,0.00,,2013-02-25 01:32:00,
2013-02-24 20:42:00,34.0,20.0,30.07,NW,306,5.0,9.0,57,0.00,,,0.00,,2013-02-25 01:42:00,
2013-02-24 20:52:00,34.0,20.0,30.08,WNW,290,3.0,7.0,57,0.00,,,0.00,,2013-02-25 01:52:00,
2013-02-24 21:01:00,33.0,20.0,30.07,NW,309,5.0,6.0,59,0.00,,,0.00,,2013-02-25 02:01:00,
2013-02-24 21:11:00,33.0,20.0,30.08,NW,324,5.0,10.0,59,0.00,,,0.00,,2013-02-25 02:11:00,
2013-02-24 21:21:00,33.0,20.0,30.08,NW,324,5.0,10.0,59,0.00,,,0.00,,2013-02-25 02:21:00,
2013-02-24 21:32:00,32.0,20.0,30.08,NNW,333,3.0,6.0,60,0.00,,,0.00,,2013-02-25 02:32:00,
2013-02-24 21:42:00,32.0,20.0,30.08,NNW,333,3.0,6.0,60,0.00,,,0.00,,2013-02-25 02:42:00,
2013-02-24 21:52:00,32.0,20.0,30.07,NW,314,4.0,6.0,61,0.00,,,0.00,,2013-02-25 02:52:00,
2013-02-24 22:01:00,31.0,19.0,30.08,NW,315,4.0,8.0,61,0.00,,,0.00,,2013-02-25 03:01:00,
2013-02-24 22:11:00,31.0,19.0,30.08,NW,315,4.0,8.0,61,0.00,,,0.00,,2013-02-25 03:11:00,
2013-02-24 22:21:00,31.0,19.0,30.09,NW,315,0.0,1.0,61,0.00,,,0.00,,2013-02-25 03:21:00,
2013-02-24 22:32:00,31.0,19.0,30.09,NW,315,1.0,3.0,61,0.00,,,0.00,,2013-02-25 03:32:00,
2013-02-24 22:42:00,31.0,19.0,30.09,NW,315,1.0,3.0,61,0.00,,,0.00,,2013-02-25 03:42:00,
2013-02-24 22:52:00,30.0,19.0,30.09,NW,315,2.0,4.0,62,0.00,,,0.00,,2013-02-25 03:52:00,
2013-02-24 23:02:00,30.0,19.0,30.09,NW,315,0.0,0.0,62,0.00,,,0.00,,2013-02-25 04:02:00,
2013-02-24 23:11:00,30.0,19.0,30.09,NW,315,0.0,0.0,62,0.00,,,0.00,,2013-02-25 04:11:00,
2013-02-24 23:21:00,30.0,19.0,30.09,NW,315,1.0,2.0,62,0.00,,,0.00,,2013-02-25 04:21:00,
2013-02-24 23:32:00,29.0,18.0,30.09,NW,315,0.0,2.0,64,0.00,,,0.00,,2013-02-25 04:32:00,
2013-02-24 23:42:00,29.0,18.0,30.09,NW,315,0.0,2.0,64,0.00,,,0.00,,2013-02-25 04:42:00,
2013-02-24 23:52:00,28.0,17.0,30.10,NW,315,0.0,1.0,64,0.00,,,0.00,,2013-02-25 04:52:00,